sat.trackr.live / text

‹ back to catalog

SMDC ONE 1.2

NORAD 38759 · 2012-048B

PAYLOAD ACTIVE UNKNOWN

§ Identity

Operator
Country
US
Launch date
2012-09-13
Launch site
AFWTR
Launch vehicle
Mass (kg)
RCS (m²)

External: N2YO · Heavens-Above · Gunter

§ Orbital elements

Epoch: 2026-09-08T00:21:47.132640Z

Period
94.60 min
Inclination
64.6557°
Eccentricity
0.0079103
Mean motion
15.22219612 rev/d
Perigee alt
444.7 km
Apogee alt
553.5 km
Semi-major
6,877.3 km
B*
2.4960e-4
RAAN
266.9983°
Arg perigee
148.5090°
Mean anomaly
212.0808°
Rev number
12,875

§ Raw data

SMDC ONE 1.21 38759U 12048B   26251.01512885  .00006056  00000+0  24960-3 0  99932 38759  64.6557 266.9983 0079103 148.5090 212.0808 15.22219612128752

JSON: /api/v1/satellites/38759 · /tle

For live sub-satellite position, see the globe view (requires WebGL).

§ Visibility from observer

Set your observer location to see the next 7 days of passes ≥ 10°. The values pass through the URL so the page stays shareable.

No JS? Fill the form by hand. The geolocation button needs JavaScript.